Vertical_Velocity
-3 -2 -1 -1 -3 -1 -4 -2 -0 -2 1 -2 -8 4 3 -8 4 5 2 2 -2 1 2 -0 -2 1 1 -4 -0 -4 7 -5 2 5 7 -2 0 2 -0 2 -2 -4 1 -5 10 3 -10 -7 2 -2 -0 -1 -0 -2
-3 -1 1 -3 -1 -1 -4 -3 1 -1 -4 -4 -7 -1 -2 4 6 8 -10 10 -2 5 -2 3 0 -3 -2 -3 8 4 -9 -1 17 8 -1 2 -1 -0 -1 -9 -3 -2 -2 -1 1 -2 -2 1 1 3 3 1 0 0
-2 -4 -3 1 3 -1 -3 -3 1 -2 -0 -4 -1 2 1 -2 -3 16 4 12 9 3 5 5 1 2 1 -1 1 -4 -2 -1 -12 -5 5 2 -5 -3 -3 0 8 1 2 2 10 1 2 6 -1 -1 -4 -1 -1 -1
0 -0 -1 2 1 1 0 -3 2 -3 -3 2 5 6 -4 -8 13 -10 0 11 7 11 9 0 4 0 2 6 5 -2 1 8 1 -3 -0 9 5 -3 -3 0 -0 -2 2 -4 -0 2 1 2 -1 -2 -2 2 1 1
1 1 -1 -0 1 1 0 -2 -0 -1 -4 -5 -7 -10 -5 -2 -9 9 5 17 6 11 8 2 1 5 3 4 7 8 7 7 8 17 10 3 3 3 4 4 3 1 -2 1 -0 5 3 -3 -2 2 1 0 -2 -3
-1 -2 -1 0 -1 -0 0 -2 0 -2 -3 -1 -7 -1 1 -0 11 2 11 -4 13 6 9 -1 -0 2 2 1 3 6 4 6 3 3 4 2 -1 3 2 3 2 2 -1 -0 -0 -0 -1 4 3 1 2 1 1 -1
0 1 1 -0 -1 2 -1 -2 -1 -3 -5 -0 -3 -3 20 -5 -2 2 16 11 16 5 8 -2 -2 2 2 1 2 4 4 4 6 5 5 3 4 3 1 -3 -0 0 -2 -6 -4 -3 -1 4 4 2 1 -1 -3 -3
-1 -0 -0 -1 -0 0 -2 2 -2 -2 -3 -6 -3 -0 17 -3 -3 5 5 5 8 6 9 -0 -0 0 4 -1 -3 1 0 2 4 3 3 1 1 0 -3 0 -2 -0 1 -2 -1 1 2 1 2 1 -1 -2 -1 -1
-1 -2 1 -2 3 -1 -2 1 -1 -5 -3 -5 -3 -3 4 -0 4 3 4 -1 5 8 3 0 -1 -1 5 -1 -1 5 1 -0 1 -1 -3 -0 1 -2 -2 -4 -3 0 2 3 3 2 1 0 -0 -0 2 1 0 -1
-1 -2 5 -2 -2 -0 -1 -2 -4 -4 -4 -1 -4 -1 4 3 -0 5 2 7 10 3 -6 -1 -2 -3 -1 -7 2 -2 -0 -3 -3 -2 -3 -3 -0 -1 -2 -2 2 3 3 2 0 1 2 1 -1 -2 -3 -5 -6 -4
-1 -2 2 -1 -2 -4 -1 3 -2 -2 -2 -2 -2 -1 5 4 7 4 1 2 0 -0 4 2 6 4 6 -0 -0 1 -1 -1 -2 -1 0 2 2 2 1 2 2 1 2 2 1 -0 -2 -2 -1 -2 -0 -0 -3 -2
-2 -2 -3 1 -0 -3 -0 -0 -1 -1 -2 -3 1 8 14 4 2 3 1 1 -0 -0 -0 3 0 2 7 -1 -3 -4 -4 -1 -2 -1 -1 0 2 2 2 1 1 1 1 -0 -1 -2 1 -1 -3 -0 -0 1 -1 -4
5 0 -0 -1 -2 1 -2 -1 0 3 1 -2 -4 0 1 4 2 2 2 2 0 -1 2 1 -4 -5 2 -0 -3 -5 -2 -2 1 -1 0 -1 0 2 1 1 0 1 1 -0 -1 -2 -2 -1 -1 -2 0 -3 -8 -5
3 -1 0 -3 0 -3 -1 2 -2 1 -3 -2 -1 -3 -0 3 1 3 2 2 1 2 1 0 0 -3 -1 -4 -2 -4 -2 -1 -1 -2 -1 0 0 -1 0 -1 -0 0 2 1 2 1 -1 -2 -0 -2 -5 -6 -8 -6
2 -0 -0 -3 -2 -2 5 0 -0 2 2 -7 -2 -1 6 5 4 3 2 3 1 -1 4 4 1 -0 -2 -4 -4 -2 -2 -1 -1 -3 -1 -2 -1 -1 -1 0 -1 -3 -4 -4 -4 -1 -0 -3 -3 1 -0 -2 -3 -2
1 0 -1 2 0 -1 -1 -2 0 1 1 -0 -2 1 3 10 5 1 -2 3 4 2 3 0 -4 -4 -3 -1 -1 -1 -1 -1 -2 -2 1 1 0 -1 -2 -2 -2 -2 -1 0 -0 -2 -1 -1 -1 -2 0 -2 -2 -3
-2 -1 3 -2 0 -0 -0 1 -3 -4 -2 -2 3 6 5 -1 -3 1 0 3 3 1 -1 -1 -2 -2 -1 -2 -0 1 1 1 2 1 1 1 1 -0 -1 -1 1 1 -1 -2 -1 -0 -1 -2 -2 -3 -1 1 0 1
-2 1 2 -3 -0 0 -0 0 -3 -3 -1 2 -1 2 -1 -1 -1 -1 0 1 2 1 1 -2 -1 -0 -1 -1 -0 0 1 -1 -2 0 2 -0 -3 -3 -1 -1 -1 -1 -2 -0 -2 -4 -4 -4 -1 -1 -1 -1 -0 -1
2 0 -2 -2 -2 -3 -3 -1 -2 -2 -2 -2 1 1 -1 -1 3 1 1 1 2 3 -4 -1 0 -1 -1 2 5 7 4 2 0 1 0 -0 -0 -2 -3 -3 -3 -3 -3 -1 -0 -1 -1 -1 -2 -1 -0 -2 -2 -1
0 1 -0 -2 -2 -1 -2 -0 1 -0 1 -2 -4 -2 0 0 1 3 2 -0 -2 -6 -3 1 3 4 2 3 1 -2 -1 -1 1 3 -1 -3 -1 -1 -0 -0 -1 -0 1 -1 0 0 -1 -0 -2 -2 -3 -3 -1 0
-4 -3 -3 -2 -1 -3 -3 -1 -2 -1 -0 -1 -0 -3 -4 -1 -0 -3 0 4 5 2 2 -0 3 3 2 0 -1 -3 -3 -0 1 1 -0 -1 -2 -3 -2 -0 -0 -3 -3 -2 -1 0 -1 -2 -1 -0 -0 -0 -0 -1
-2 -1 -1 -1 -1 -1 -1 -1 -0 -0 -0 1 1 1 -2 -2 -1 0 1 1 -0 1 1 1 2 1 -2 -2 -0 -0 -0 2 1 1 0 -1 -1 -1 -1 -1 -0 1 -0 -0 1 0 0 0 1 0 -0 1 1 0
1 0 -1 -2 -2 -1 -1 1 -1 -1 -0 -0 0 -0 -1 0 0 1 -1 1 1 -0 2 4 1 1 1 2 1 1 1 1 -1 -2 -1 -1 -3 -0 -1 -2 -3 -0 2 0 -0 1 1 1 1 1 -0 -0 -0 -0
0 -1 -1 -1 -1 -2 -1 0 0 -0 -0 -2 -0 2 0 -0 1 -1 -0 -1 -1 1 -0 1 2 1 0 1 1 1 -0 0 -1 0 -1 -2 -2 -3 -1 -2 -0 0 -1 -1 -0 0 0 -0 -0 -0 -0 -0 -1 -1
-1 -0 -1 -1 -1 -1 -1 -2 -1 -0 -0 -0 -0 -0 2 2 1 1 2 4 4 2 1 2 3 2 -1 0 0 -0 -1 -1 -1 -2 -1 -1 -1 -1 1 1 -0 -3 -1 2 1 -0 -1 -1 -1 -1 -1 -0 0 0
-1 1 -1 -1 -2 0 0 -0 -1 0 1 -1 0 2 4 -0 -1 0 2 5 4 2 3 -1 -3 -2 -0 -0 -1 -1 -1 -1 -1 -2 -2 -1 1 1 1 -1 0 4 1 -1 0 -0 -1 -0 0 0 0 1 1 0
-1 1 3 1 -1 -0 -0 -0 0 -0 -0 -0 1 -1 -1 -1 -1 3 1 2 2 1 0 0 -0 0 1 1 0 -1 -1 -2 -1 -1 1 -0 -2 -2 -2 -3 1 3 3 1 1 1 1 1 1 1 1 1 -0 0
-0 -0 -0 -1 -0 -0 -0 0 0 -1 -1 0 -0 0 -0 -0 -5 -1 -0 1 1 1 -0 0 0 0 -0 -1 -0 -2 -3 -3 -5 -4 -6 -8 -6 -4 -3 -1 -0 -2 -1 1 1 1 1 1 1 1 0 0 0 1
-0 -1 -0 -0 0 1 -0 -0 0 -0 -1 1 0 -0 -0 -2 -5 -3 -1 -2 -1 -0 2 2 1 1 0 -0 -0 0 2 2 3 3 4 6 8 6 3 -1 0 0 -0 -0 1 1 1 0 0 0 0 1 1 0
-1 -0 -0 0 1 0 0 -0 -1 -0 -0 0 1 -0 -1 3 1 -0 -2 -2 -1 -1 -0 1 1 -1 1 -0 -1 -1 -1 -3 -1 2 4 2 -1 -1 1 1 1 1 1 1 1 2 1 1 1 1 0 1 0 -0
1 -0 -1 -0 0 1 2 2 1 -1 0 -0 -1 -1 -0 -0 0 -0 -1 -1 -1 -1 -1 -1 0 1 -1 -2 -2 -0 0 2 2 -0 -1 -3 1 2 0 -2 -1 1 1 2 2 2 1 1 1 1 0 0 0 0
1 3 2 1 -0 -2 -0 1 2 2 3 2 -0 -1 -1 -1 -1 -1 -1 -0 0 1 -0 1 2 -0 0 2 3 2 1 1 1 2 3 3 2 1 -0 -1 -2 1 2 2 2 2 1 1 1 1 1 0 0 0
1 -0 -0 -0 1 1 -0 -0 0 0 -0 -1 -0 -0 -1 -1 -2 0 0 1 -0 -0 2 1 -0 0 1 1 1 0 -0 -1 0 -1 -3 -2 -2 -0 2 2 -0 -1 2 1 2 2 1 1 1 1 1 1 -0 -0
Height
2987 2984 2979 2975 2971 2966 2961 2956 2953 2949 2945 2941 2937 2935 2932 2933 2932 2931 2931 2935 2937 2939 2944 2949 2952 2956 2960 2966 2971 2975 2982 2985 2991 2995 2997 2997 2998 3001 3003 3005 3007 3012 3016 3019 3025 3026 3022 3021 3023 3027 3027 3026 3029 3031
2980 2977 2972 2968 2964 2960 2956 2952 2948 2944 2940 2936 2933 2928 2926 2927 2926 2923 2925 2928 2930 2934 2937 2940 2944 2948 2952 2956 2961 2964 2970 2977 2985 2988 2989 2991 2993 2994 2996 3000 3003 3008 3009 3011 3015 3014 3013 3014 3016 3019 3021 3023 3025 3027
2973 2969 2964 2961 2957 2954 2950 2946 2942 2939 2935 2931 2927 2923 2921 2919 2920 2919 2918 2921 2924 2927 2931 2934 2936 2940 2944 2948 2953 2957 2962 2968 2971 2977 2982 2984 2987 2989 2991 2993 2996 2998 3000 3004 3007 3006 3007 3009 3010 3013 3016 3018 3020 3021
2966 2962 2958 2954 2951 2947 2944 2941 2937 2933 2930 2926 2922 2917 2914 2913 2913 2912 2916 2918 2919 2922 2924 2927 2929 2933 2937 2941 2946 2950 2956 2961 2966 2970 2974 2976 2979 2981 2983 2986 2987 2990 2993 2994 2997 2998 3001 3004 3006 3009 3012 3014 3016 3017
2959 2955 2951 2948 2944 2941 2939 2935 2932 2928 2925 2921 2917 2913 2911 2908 2909 2908 2909 2912 2916 2921 2919 2921 2925 2928 2931 2935 2940 2945 2950 2954 2959 2963 2965 2968 2971 2975 2975 2979 2981 2983 2986 2989 2991 2994 2997 3001 3004 3007 3009 3009 3010 3011
2952 2949 2945 2941 2938 2935 2933 2930 2927 2923 2921 2917 2914 2910 2908 2906 2906 2903 2905 2908 2911 2911 2917 2919 2922 2924 2927 2930 2934 2938 2943 2948 2952 2956 2960 2962 2966 2970 2972 2973 2976 2979 2982 2985 2988 2991 2995 2999 3001 3003 3005 3005 3005 3005
2947 2943 2939 2935 2933 2931 2928 2926 2922 2920 2917 2914 2911 2907 2905 2903 2903 2903 2904 2905 2906 2908 2913 2915 2919 2922 2925 2928 2931 2934 2938 2942 2947 2950 2954 2958 2962 2965 2966 2970 2973 2977 2980 2983 2987 2991 2994 2996 2998 2999 3000 3001 3001 3001
2943 2939 2935 2932 2929 2927 2924 2921 2919 2916 2913 2910 2906 2904 2900 2901 2901 2901 2900 2902 2904 2908 2911 2912 2917 2923 2925 2927 2931 2934 2936 2940 2944 2947 2951 2955 2959 2963 2966 2970 2972 2977 2981 2984 2987 2990 2991 2993 2995 2995 2996 2997 2997 2997
2939 2935 2931 2928 2925 2923 2921 2918 2916 2913 2910 2907 2904 2902 2900 2900 2901 2900 2899 2900 2902 2908 2906 2909 2915 2920 2924 2928 2933 2937 2938 2942 2946 2948 2952 2957 2959 2962 2966 2969 2973 2976 2980 2983 2985 2987 2988 2990 2992 2993 2993 2993 2993 2992
2935 2932 2928 2925 2923 2921 2918 2916 2914 2911 2908 2905 2903 2901 2900 2900 2900 2900 2900 2902 2903 2903 2905 2911 2915 2919 2924 2929 2934 2938 2940 2944 2948 2953 2955 2958 2961 2964 2966 2969 2972 2976 2978 2981 2982 2985 2986 2988 2989 2990 2989 2988 2986 2984
2932 2929 2925 2923 2921 2919 2917 2914 2912 2909 2907 2905 2903 2900 2900 2900 2900 2901 2901 2902 2903 2906 2910 2914 2918 2920 2924 2929 2932 2936 2940 2945 2949 2954 2956 2959 2961 2964 2966 2970 2973 2976 2978 2980 2981 2983 2985 2985 2985 2985 2983 2981 2979 2976
2929 2925 2922 2920 2919 2917 2915 2913 2911 2909 2906 2905 2903 2901 2901 2902 2902 2902 2902 2904 2905 2909 2912 2916 2919 2925 2926 2928 2933 2939 2943 2947 2949 2953 2956 2959 2963 2964 2966 2969 2972 2974 2976 2978 2980 2982 2982 2982 2981 2979 2977 2974 2970 2968
2926 2923 2920 2919 2917 2916 2914 2912 2910 2908 2907 2906 2905 2903 2903 2904 2903 2903 2903 2904 2906 2910 2914 2918 2923 2926 2930 2932 2936 2941 2945 2948 2951 2954 2957 2960 2963 2965 2967 2970 2972 2975 2977 2978 2979 2979 2978 2976 2975 2972 2970 2966 2964 2960
2923 2922 2920 2918 2917 2916 2914 2912 2911 2909 2909 2908 2908 2907 2906 2906 2906 2906 2906 2907 2910 2913 2918 2923 2926 2929 2930 2934 2938 2942 2948 2950 2952 2954 2957 2960 2963 2966 2969 2971 2973 2974 2975 2975 2975 2974 2972 2971 2968 2965 2961 2958 2953 2948
2922 2921 2920 2919 2918 2916 2915 2914 2913 2911 2910 2911 2912 2911 2911 2911 2910 2910 2910 2911 2914 2917 2923 2927 2930 2931 2934 2937 2941 2944 2948 2949 2952 2954 2957 2961 2964 2967 2969 2971 2972 2973 2972 2971 2970 2968 2965 2962 2959 2956 2951 2947 2943 2938
2922 2922 2921 2920 2919 2918 2917 2915 2914 2914 2913 2914 2915 2915 2915 2914 2913 2914 2915 2917 2920 2923 2926 2929 2931 2934 2937 2939 2942 2944 2947 2949 2952 2955 2958 2961 2964 2967 2969 2969 2969 2968 2967 2965 2962 2960 2957 2954 2950 2946 2943 2938 2934 2929
2923 2923 2923 2922 2921 2920 2918 2917 2917 2916 2916 2918 2918 2918 2918 2919 2918 2918 2920 2922 2925 2927 2929 2931 2933 2936 2939 2941 2944 2945 2948 2951 2954 2957 2960 2962 2964 2965 2966 2966 2965 2963 2962 2959 2956 2953 2949 2946 2941 2937 2933 2929 2924 2920
2926 2925 2925 2925 2924 2923 2922 2920 2920 2921 2922 2922 2922 2922 2922 2921 2921 2922 2922 2926 2929 2931 2932 2934 2937 2939 2941 2943 2945 2948 2950 2953 2956 2959 2961 2962 2963 2963 2963 2962 2960 2958 2955 2952 2949 2945 2941 2936 2932 2928 2923 2920 2916 2911
2930 2929 2929 2928 2927 2926 2925 2925 2924 2925 2926 2926 2927 2927 2926 2926 2925 2925 2927 2929 2932 2933 2936 2937 2940 2942 2944 2946 2949 2951 2953 2955 2957 2959 2960 2960 2960 2959 2958 2956 2954 2951 2947 2944 2940 2936 2931 2927 2922 2918 2914 2910 2907 2903
2934 2933 2932 2931 2930 2929 2928 2928 2928 2928 2929 2930 2930 2930 2930 2930 2930 2930 2930 2931 2934 2936 2939 2941 2943 2946 2947 2949 2951 2952 2955 2957 2957 2958 2957 2956 2955 2954 2952 2950 2947 2944 2940 2936 2931 2926 2922 2918 2914 2910 2905 2902 2899 2898
2937 2936 2935 2934 2932 2932 2932 2931 2930 2931 2931 2931 2931 2932 2932 2933 2934 2934 2935 2935 2936 2938 2941 2944 2946 2947 2949 2950 2952 2954 2955 2955 2955 2955 2955 2953 2952 2949 2947 2944 2940 2936 2932 2927 2923 2919 2914 2910 2906 2902 2898 2896 2894 2893
2940 2938 2937 2936 2935 2934 2933 2933 2932 2932 2932 2932 2932 2933 2933 2934 2935 2936 2937 2939 2940 2942 2944 2946 2947 2948 2949 2950 2951 2952 2952 2952 2951 2950 2949 2948 2946 2943 2940 2937 2933 2929 2924 2919 2915 2911 2906 2902 2899 2896 2894 2891 2889 2889
2941 2940 2938 2937 2937 2936 2937 2935 2934 2934 2933 2933 2932 2933 2934 2936 2936 2938 2938 2940 2941 2943 2943 2944 2946 2948 2949 2949 2950 2950 2950 2949 2948 2947 2945 2943 2940 2937 2934 2929 2926 2922 2918 2913 2908 2904 2900 2897 2894 2892 2890 2889 2887 2887
2942 2940 2939 2938 2938 2937 2937 2936 2935 2935 2935 2934 2934 2934 2935 2936 2938 2939 2940 2941 2942 2943 2944 2945 2945 2946 2947 2948 2948 2948 2947 2946 2945 2944 2942 2940 2936 2932 2928 2925 2921 2916 2912 2907 2903 2899 2896 2894 2891 2890 2889 2888 2887 2886
2943 2943 2942 2940 2939 2939 2938 2937 2936 2936 2936 2936 2936 2937 2937 2939 2940 2941 2942 2944 2944 2944 2944 2945 2946 2946 2947 2947 2947 2946 2946 2944 2942 2940 2938 2935 2932 2928 2924 2920 2916 2911 2907 2903 2899 2897 2894 2892 2890 2889 2888 2887 2886 2886
2942 2942 2942 2941 2941 2940 2938 2938 2937 2937 2937 2938 2938 2939 2939 2941 2942 2944 2946 2946 2946 2946 2946 2947 2947 2947 2947 2947 2947 2946 2945 2942 2940 2937 2934 2932 2928 2924 2921 2917 2913 2909 2904 2900 2898 2896 2894 2892 2890 2889 2888 2887 2887 2887
2944 2943 2942 2942 2941 2940 2940 2939 2939 2939 2939 2940 2940 2941 2942 2943 2944 2947 2948 2948 2949 2949 2949 2948 2948 2949 2949 2948 2946 2945 2943 2941 2938 2935 2931 2927 2923 2920 2916 2913 2908 2905 2901 2899 2898 2896 2895 2893 2891 2890 2890 2889 2889 2889
2945 2944 2944 2944 2942 2942 2941 2941 2941 2941 2941 2942 2943 2943 2943 2943 2946 2948 2949 2950 2950 2951 2950 2949 2949 2949 2948 2947 2946 2944 2942 2938 2934 2930 2926 2922 2919 2916 2912 2909 2905 2902 2899 2898 2897 2896 2895 2894 2893 2892 2891 2891 2891 2891
2945 2944 2944 2943 2943 2942 2942 2942 2942 2942 2943 2943 2944 2944 2944 2945 2948 2950 2951 2952 2952 2951 2950 2949 2949 2948 2948 2946 2945 2943 2940 2937 2935 2931 2928 2924 2921 2917 2912 2908 2904 2901 2899 2897 2896 2895 2895 2894 2893 2892 2892 2892 2892 2892
2947 2945 2944 2944 2944 2943 2944 2944 2944 2945 2945 2946 2946 2946 2947 2948 2950 2951 2952 2952 2952 2951 2949 2949 2948 2948 2947 2945 2943 2941 2938 2935 2932 2930 2926 2922 2917 2914 2910 2907 2903 2900 2898 2896 2895 2895 2894 2894 2893 2893 2892 2892 2892 2892
2948 2947 2945 2944 2944 2944 2944 2945 2946 2946 2947 2947 2948 2949 2950 2950 2951 2951 2951 2951 2950 2949 2948 2948 2947 2946 2945 2943 2942 2940 2937 2935 2932 2928 2924 2921 2917 2913 2909 2906 2902 2899 2897 2896 2895 2894 2894 2894 2893 2892 2892 2892 2893 2893
2947 2946 2946 2945 2945 2944 2943 2944 2945 2946 2947 2948 2949 2949 2950 2950 2950 2950 2950 2949 2948 2948 2948 2947 2946 2946 2945 2943 2942 2940 2937 2934 2931 2928 2924 2920 2917 2913 2909 2906 2902 2900 2897 2896 2895 2894 2894 2894 2893 2892 2892 2892 2893 2893
2944 2944 2945 2945 2944 2944 2943 2943 2943 2944 2946 2946 2947 2947 2948 2949 2949 2949 2949 2949 2949 2949 2948 2947 2946 2945 2944 2942 2940 2938 2935 2933 2929 2926 2922 2919 2916 2913 2910 2906 2903 2900 2897 2896 2895 2894 2894 2894 2894 2893 2893 2893 2893 2894